• In Österreich
  • Länderverzeichnis
  • Für 7 Tage
  • Wassertemperatur
  • Satellitenkarten
  • Wetterkarte
  • News
  • Widgets
  • user-avatar
    Anmelden

    Stündliche Wetter Boma

    Heute, 21 Juni, Donnerstag

    Zeit Temperatur Niederschläge Wind Luftdruck Luftfeuchtigkeit
    00:00 +19°C° 0,7 mm 0 m/S 702 mmHg 98%
    01:00 +19°C° 0 mm 0 m/S 703 mmHg 99%
    02:00 +19°C° 0,2 mm 0 m/S 703 mmHg 99%
    03:00 +21°C° 0,2 mm 1 m/S 703 mmHg 99%
    04:00 +21°C° 0,2 mm 1 m/S 703 mmHg 99%
    05:00 +21°C° 0 mm 1 m/S 703 mmHg 99%
    06:00 +21°C° 0 mm 1 m/S 703 mmHg 98%
    07:00 +21°C° 0 mm 1 m/S 703 mmHg 98%
    08:00 +22°C° 0 mm 1 m/S 703 mmHg 95%
    09:00 +23°C° 0 mm 1 m/S 703 mmHg 92%
    10:00 +23°C° 0 mm 1 m/S 703 mmHg 90%
    11:00 +25°C° 0,2 mm 1 m/S 703 mmHg 83%
    12:00 +26°C° 0,2 mm 1 m/S 703 mmHg 76%
    13:00 +28°C° 0,2 mm 1 m/S 702 mmHg 68%
    14:00 +28°C° 0,2 mm 1 m/S 702 mmHg 65%
    15:00 +29°C° 0,2 mm 1 m/S 702 mmHg 62%
    16:00 +30°C° 0,2 mm 1 m/S 701 mmHg 60%
    17:00 +28°C° 0,3 mm 1 m/S 701 mmHg 68%
    18:00 +26°C° 0,3 mm 1 m/S 701 mmHg 77%
    19:00 +22°C° 0,3 mm 0 m/S 701 mmHg 86%
    20:00 +21°C° 0,8 mm 0 m/S 702 mmHg 89%
    21:00 +20°C° 0,8 mm 0 m/S 702 mmHg 92%
    22:00 +20°C° 0,8 mm 0 m/S 703 mmHg 95%
    23:00 +19°C° 0,6 mm 0 m/S 703 mmHg 96%

    Morgen, 22 Juni, Freitag

    Zeit Temperatur Niederschläge Wind Luftdruck Luftfeuchtigkeit
    00:00 +19°C° 0,6 mm 0 m/S 702 mmHg 97%
    01:00 +19°C° 0,6 mm 0 m/S 702 mmHg 98%
    02:00 +19°C° 0 mm 0 m/S 702 mmHg 98%
    03:00 +21°C° 0 mm 1 m/S 702 mmHg 98%
    04:00 +20°C° 0 mm 1 m/S 702 mmHg 99%
    05:00 +21°C° 0 mm 1 m/S 702 mmHg 98%
    06:00 +21°C° 0 mm 1 m/S 702 mmHg 98%
    07:00 +21°C° 0 mm 1 m/S 703 mmHg 97%
    08:00 +22°C° 0 mm 1 m/S 703 mmHg 94%
    09:00 +23°C° 0 mm 1 m/S 703 mmHg 90%
    10:00 +24°C° 0 mm 1 m/S 704 mmHg 86%
    11:00 +26°C° 0,2 mm 1 m/S 703 mmHg 78%
    12:00 +27°C° 0,2 mm 1 m/S 703 mmHg 70%
    13:00 +29°C° 0,2 mm 1 m/S 703 mmHg 63%
    14:00 +29°C° 0,5 mm 1 m/S 702 mmHg 62%
    15:00 +29°C° 0,5 mm 1 m/S 701 mmHg 61%
    16:00 +30°C° 0,5 mm 1 m/S 701 mmHg 61%
    17:00 +28°C° 0,2 mm 1 m/S 701 mmHg 68%
    18:00 +24°C° 0,2 mm 0 m/S 701 mmHg 76%
    19:00 +22°C° 0,2 mm 0 m/S 701 mmHg 83%
    20:00 +21°C° 1,9 mm 0 m/S 701 mmHg 88%
    21:00 +21°C° 1,9 mm 0 m/S 702 mmHg 92%
    22:00 +20°C° 1,9 mm 0 m/S 703 mmHg 96%
    23:00 +20°C° 1,2 mm 0 m/S 702 mmHg 97%

    übermorgen, 23 Juni, Samstag

    Zeit Temperatur Niederschläge Wind Luftdruck Luftfeuchtigkeit
    00:00 +20°C° 1,2 mm 0 m/S 702 mmHg 98%
    01:00 +22°C° 1,2 mm 1 m/S 702 mmHg 98%
    02:00 +21°C° 0,1 mm 1 m/S 702 mmHg 98%
    03:00 +21°C° 0,1 mm 1 m/S 702 mmHg 99%
    04:00 +21°C° 0,1 mm 1 m/S 701 mmHg 99%
    05:00 +21°C° 0 mm 1 m/S 702 mmHg 99%
    06:00 +21°C° 0 mm 1 m/S 702 mmHg 98%
    07:00 +22°C° 0 mm 1 m/S 702 mmHg 98%
    08:00 +22°C° 0 mm 1 m/S 703 mmHg 94%
    09:00 +23°C° 0 mm 1 m/S 703 mmHg 91%
    10:00 +24°C° 0 mm 1 m/S 704 mmHg 87%
    11:00 +25°C° 0,1 mm 1 m/S 703 mmHg 79%
    12:00 +27°C° 0,1 mm 1 m/S 703 mmHg 71%
    13:00 +29°C° 0,1 mm 1 m/S 702 mmHg 64%
    14:00 +28°C° 0,7 mm 1 m/S 702 mmHg 69%
    15:00 +28°C° 0,7 mm 1 m/S 701 mmHg 74%
    16:00 +27°C° 0,7 mm 1 m/S 700 mmHg 80%
    17:00 +24°C° 0,9 mm 0 m/S 700 mmHg 85%
    18:00 +22°C° 0,9 mm 0 m/S 700 mmHg 90%
    19:00 +21°C° 0,9 mm 0 m/S 701 mmHg 96%
    20:00 +21°C° 1,6 mm 0 m/S 701 mmHg 96%
    21:00 +20°C° 1,6 mm 0 m/S 702 mmHg 96%
    22:00 +20°C° 1,6 mm 0 m/S 702 mmHg 96%
    23:00 +22°C° 0,5 mm 1 m/S 702 mmHg 97%

    24 Juni, Sonntag

    Zeit Temperatur Niederschläge Wind Luftdruck Luftfeuchtigkeit
    00:00 +22°C° 0,5 mm 1 m/S 702 mmHg 97%
    01:00 +21°C° 0,5 mm 1 m/S 702 mmHg 98%
    02:00 +21°C° 0,1 mm 1 m/S 701 mmHg 98%
    03:00 +21°C° 0,1 mm 1 m/S 701 mmHg 98%
    04:00 +21°C° 0,1 mm 1 m/S 701 mmHg 99%
    05:00 +21°C° 0 mm 1 m/S 701 mmHg 99%
    06:00 +21°C° 0 mm 1 m/S 702 mmHg 98%
    07:00 +19°C° 0 mm 0 m/S 702 mmHg 98%
    08:00 +23°C° 0 mm 1 m/S 703 mmHg 90%
    09:00 +24°C° 0 mm 1 m/S 703 mmHg 82%
    10:00 +26°C° 0 mm 1 m/S 703 mmHg 74%
    11:00 +27°C° 0,4 mm 1 m/S 703 mmHg 74%
    12:00 +28°C° 0,4 mm 1 m/S 702 mmHg 73%
    13:00 +28°C° 0,4 mm 1 m/S 702 mmHg 72%
    14:00 +28°C° 1 mm 1 m/S 701 mmHg 74%
    15:00 +28°C° 1 mm 1 m/S 701 mmHg 76%
    16:00 +26°C° 1 mm 0 m/S 700 mmHg 78%
    17:00 +24°C° 0,9 mm 0 m/S 700 mmHg 83%
    18:00 +23°C° 0,9 mm 0 m/S 700 mmHg 89%
    19:00 +21°C° 0,9 mm 0 m/S 701 mmHg 94%
    20:00 +21°C° 1,1 mm 0 m/S 701 mmHg 95%
    21:00 +20°C° 1,1 mm 0 m/S 701 mmHg 96%
    22:00 +20°C° 1,1 mm 0 m/S 701 mmHg 97%
    23:00 +19°C° 0 mm 0 m/S 701 mmHg 97%

    25 Juni, Montag

    Zeit Temperatur Niederschläge Wind Luftdruck Luftfeuchtigkeit
    00:00 +19°C° 0 mm 0 m/S 701 mmHg 97%
    01:00 +19°C° 0 mm 0 m/S 700 mmHg 98%
    02:00 +19°C° 0 mm 0 m/S 700 mmHg 98%
    03:00 +18°C° 0 mm 0 m/S 700 mmHg 98%
    04:00 +18°C° 0 mm 0 m/S 700 mmHg 98%
    05:00 +18°C° 0 mm 0 m/S 701 mmHg 98%
    06:00 +19°C° 0 mm 0 m/S 701 mmHg 98%
    07:00 +19°C° 0 mm 0 m/S 701 mmHg 98%
    08:00 +21°C° 0 mm 0 m/S 702 mmHg 88%
    09:00 +24°C° 0 mm 0 m/S 702 mmHg 78%
    10:00 +26°C° 0 mm 0 m/S 703 mmHg 69%
    11:00 +30°C° 0 mm 1 m/S 702 mmHg 61%
    12:00 +32°C° 0 mm 1 m/S 702 mmHg 54%
    13:00 +33°C° 0 mm 1 m/S 701 mmHg 46%
    14:00 +31°C° 0 mm 0 m/S 701 mmHg 48%
    15:00 +30°C° 0 mm 0 m/S 700 mmHg 50%
    16:00 +30°C° 0 mm 0 m/S 699 mmHg 52%
    17:00 +28°C° 0 mm 0 m/S 699 mmHg 58%
    18:00 +26°C° 0 mm 0 m/S 700 mmHg 64%
    19:00 +24°C° 0 mm 0 m/S 700 mmHg 71%
    20:00 +23°C° 0,7 mm 0 m/S 700 mmHg 76%
    21:00 +22°C° 0,7 mm 0 m/S 700 mmHg 81%
    22:00 +21°C° 0,7 mm 0 m/S 701 mmHg 87%
    23:00 +20°C° 1,8 mm 0 m/S 700 mmHg 90%

    26 Juni, Dienstag

    Zeit Temperatur Niederschläge Wind Luftdruck Luftfeuchtigkeit
    00:00 +20°C° 1,8 mm 0 m/S 700 mmHg 94%
    01:00 +20°C° 1,8 mm 0 m/S 700 mmHg 97%
    02:00 +19°C° 1,6 mm 0 m/S 700 mmHg 98%
    03:00 +19°C° 1,6 mm 0 m/S 700 mmHg 98%
    04:00 +19°C° 1,6 mm 0 m/S 700 mmHg 99%
    05:00 +19°C° 0,3 mm 0 m/S 700 mmHg 99%
    06:00 +20°C° 0,3 mm 0 m/S 701 mmHg 98%
    07:00 +20°C° 0,3 mm 0 m/S 701 mmHg 98%
    08:00 +23°C° 0 mm 1 m/S 702 mmHg 96%
    09:00 +23°C° 0 mm 1 m/S 702 mmHg 93%
    10:00 +24°C° 0 mm 1 m/S 702 mmHg 90%
    11:00 +25°C° 0,1 mm 1 m/S 702 mmHg 86%
    12:00 +25°C° 0,1 mm 1 m/S 701 mmHg 81%
    13:00 +26°C° 0,1 mm 1 m/S 701 mmHg 77%
    14:00 +27°C° 0 mm 1 m/S 700 mmHg 74%
    15:00 +27°C° 0 mm 1 m/S 700 mmHg 72%
    16:00 +28°C° 0 mm 1 m/S 699 mmHg 69%
    17:00 +26°C° 1,3 mm 1 m/S 700 mmHg 77%
    18:00 +25°C° 1,3 mm 1 m/S 700 mmHg 86%
    19:00 +21°C° 1,3 mm 0 m/S 700 mmHg 95%
    20:00 +21°C° 0,4 mm 0 m/S 700 mmHg 96%
    21:00 +20°C° 0,4 mm 0 m/S 700 mmHg 97%
    22:00 +20°C° 0,4 mm 0 m/S 701 mmHg 97%
    23:00 +21°C° 0,1 mm 1 m/S 700 mmHg 98%
    Mehr zeigen